Regional Weather Roundup
Issued by NWS

Home | Current Version | Previous Version | Text Only | Print | Product List | Glossary Off
Versions: 1 2 3 4 5 6 7 8 9 10 11 12 13 14 15 16 17 18 19 20 21 22 23 24 25 26 27 28 29 30 31 32 33 34 35 36 37 38 39 40 41 42 43 44 45 46 47 48 49 50

000
ASUS43 KLOT 261103
RWRIL

ILLINOIS REGIONAL WEATHER ROUNDUP
NATIONAL WEATHER SERVICE CHICAGO/ROMEOVILLE IL
600 AM CDT WED APR 26 2017

NOTE: "FAIR" INDICATES FEW OR NO CLOUDS BELOW 12,000 FEET WITH NO
SIGNIFICANT WEATHER AND/OR OBSTRUCTIONS TO VISIBILITY.

* THESE STATIONS ARE NOT UNDER NWS QUALITY CONTROL. THEY ALSO MAY NOT
  REPORT WEATHER SUCH AS PRECIPITATION OR FOG.

ILZ001-002-007-009-015-016-024-261200-
NORTHWEST ILLINOIS

CITY           SKY/WX    TMP DP  RH WIND       PRES   REMARKS
MOLINE         LGT RAIN  64  52  64 W6        29.39R
STERLING*      CLOUDY    63  53  70 VRB5      29.40F
SAVANNA*       CLOUDY    61  54  77 CALM      29.38R
$$

ILZ003-004-008-010-011-017-018-261200-
NORTH CENTRAL ILLINOIS

CITY           SKY/WX    TMP DP  RH WIND       PRES   REMARKS
ROCKFORD       MOCLDY    63  53  70 S9        29.42F
FREEPORT*      CLOUDY    61  51  70 SE5       29.41F
ROCHELLE*      PTCLDY    60  54  79 SE10      29.43F
DE KALB*       MOCLDY    60  55  83 SE12      29.45F
PERU*          MOCLDY    62  52  70 S14       29.43F
$$

ILZ005-006-012>014-019>023-261200-
NORTHEAST ILLINOIS

CITY           SKY/WX    TMP DP  RH WIND       PRES   REMARKS
CHICAGO-OHARE  CLOUDY    64  54  69 S14       29.46F
CHICAGO-MIDWAY CLOUDY    66  56  70 S13       29.47F
AURORA         CLOUDY    63  56  78 SE13      29.45F
LANSING*       MOCLDY    64  57  80 S13       29.50F
JOLIET*        CLOUDY    64  57  78 S8        29.47S
WAUKEGAN       MOCLDY    56  52  86 SE8       29.46F
DUPAGE AIRPORT PTCLDY    63  57  81 S12       29.45F
KANKAKEE*      CLOUDY    63  55  74 S13       29.49F
WHEELING       MOCLDY    64  56  75 S13       29.48S
MORRIS*        CLOUDY    64  55  74 S12       29.45S
NORTHERLY ISL    N/A     65  54  67 SE14        N/A
$$

LMZ740>746-261200-
SOUTHERN LAKE MICHIGAN

STATION/POSITION SKY/WX   TEMP    WIND        PRES    VSBY  WAVE
                          AIR SEA DIR/SP/G                  HT/PER
                          (F)     (DEG/KT/KT) (MB)    (MI)  (FT/S)
SOUTHERN BUOY              48 41  120/ 12/ 16  999.6          1/ 3
HARRISON CRIB              61     150/ 13/ 13   N/A
BURNHAM HARBOR             65     160/  9/ 15   N/A
CALUMET HARBOR             66     150/  7/ 13  998.0F
BURNS HARBOR               66     160/ 11/ 16  999.7F
MICHIGAN CITY              64     150/ 12/ 15   N/A
ST. JOSEPH                 60 49  170/ 14/ 19  999.9F         1/ 2
$$

ILZ025>027-034>036-040-047-049-050-058-095>099-261200-
WEST-CENTRAL ILLINOIS

CITY           SKY/WX    TMP DP  RH WIND       PRES   REMARKS
QUINCY         LGT RAIN  61  60  97 S8        29.42F
GALESBURG*     RAIN      63  53  71 S13       29.44R
MACOMB*        RAIN      60  57  91 SW13      29.47R
JACKSONVILLE*  CLOUDY    60  57  91 SW8       29.47R
PITTSFIELD*    DRIZZLE   61  59  96 S6        29.48F
$$

ILZ028>032-037-038-041>044-048-051>054-059>061-261200-
CENTRAL ILLINOIS

CITY           SKY/WX    TMP DP  RH WIND       PRES   REMARKS
PONTIAC        CLOUDY    65  57  75 S18       29.47S
BLOOMINGTON    CLOUDY    63  55  75 S16       29.48S
DECATUR        CLOUDY    66  56  70 S17G25    29.50R
PEORIA         CLOUDY    65  53  65 SE12      29.41F
LINCOLN*       LGT RAIN  65  56  70 S13       29.47R
SPRINGFIELD    CLOUDY    67  53  61 S16       29.46R
TAYLORVILLE    CLOUDY    65  54  65 S16G24    29.49S
$$

ILZ033-039-045-046-055>057-062-063-261200-
EAST-CENTRAL ILLINOIS

CITY           SKY/WX    TMP DP  RH WIND       PRES   REMARKS
CHAMPAIGN      CLOUDY    65  54  67 S21G28    29.51S
RANTOUL*       CLOUDY    66  57  74 S15       29.51S
MATTOON        PTCLDY    63  57  81 S13       29.54R
PARIS*         MOCLDY    62  56  81 S14       29.56S
$$

ILZ079-100>102-261200-
SOUTHWEST ILLINOIS

CITY           SKY/WX    TMP DP  RH WIND       PRES   REMARKS
ALTON          CLOUDY    64  55  72 W24G30    29.51F
BELLEVILLE     CLOUDY    68  55  62 SW6       29.53R
CAHOKIA*       MOCLDY    67  53  61 W7G22     29.50F
SPARTA*        CLOUDY    66  56  69 SW8       29.57S
$$

ILZ064>066-069>071-074>076-080>082-084>086-088>090-092>094-261200-
SOUTH-CENTRAL ILLINOIS

CITY           SKY/WX    TMP DP  RH WIND       PRES   REMARKS
CARBONDALE     MOCLDY    68  58  70 SW18G25   29.59R
CAIRO*         CLOUDY    64  57  76 S7        29.62R
EFFINGHAM*     MOCLDY    65  57  74 SE8       29.57R
MARION         CLOUDY    68  57  68 SW8G16    29.61R
MT. VERNON     CLOUDY    64  56  75 SW9       29.58R
CENTRALIA*     CLOUDY    66  58  73 SW17G23   29.56R
SALEM*         CLOUDY    68  55  63 S10G18    29.56R
$$

ILZ067-068-072-073-078-083-087-091-261200-
SOUTHEAST ILLINOIS

CITY           SKY/WX    TMP DP  RH WIND       PRES   REMARKS
LAWRENCEVILLE  MOCLDY    64  57  78 S14       29.59R
FLORA*         CLOUDY    64  56  75 S12       29.57R
FAIRFIELD*     CLOUDY    63  56  79 S5        29.57R
HARRISBURG*    CLOUDY    64  56  75 S7        29.60S
ROBINSON*      CLOUDY    64  56  75 S13       29.58S
CARMI*         MOCLDY    62  56  81 S9        29.59S
$$

ABBREVIATIONS USED IN REMARKS
   TC - TEMPERATURE IN CELSIUS
  WCI - WIND CHILL INDEX
   HX - HEAT INDEX
  VSB - VISIBILITY
$$





USA.gov is the U.S. government's official web portal to all federal, state and local government web resources and services.